Location: Poughquag
(41.6090°N, 73.6820°W)
Time: 12:39:59
(UTC-04:00)

Transit 2A Rocket - Pass Details

Date: 30 May 2020
Orbit: 584 x 919 km, 66.7° (Epoch: 06 July)

Event Time Altitude Azimuth Distance (km) Brightness Sun altitude
Rises 00:31:40 0° 244° (WSW) 3,076 - -26.4°
Reaches altitude 10° 00:34:15 10° 257° (WSW) 2,219 - -26.4°
Exits shadow 00:35:02 14° 263° (W) 1,988 7.1 -26.4°
Maximum altitude 00:38:32 27° 314° (NW) 1,464 6.8 -26.5°
Drops below altitude 10° 00:43:11 10° 11° (NNE) 2,420 8.5 -26.5°
Sets 00:46:08 0° 24° (NNE) 3,414 9.4 -26.5°
